King Salmon, AK

3:27 AM AKST on January 24, 2018 (GMT -0900)
King Salmon

Weather History for PAKN - April, 2013

Change the Weather History Date:

Monday, April 29, 2013

  Actual Average Record
Temperature  
Mean Temperature 34 °F 39 °F  
Max Temperature 49 °F 48 °F 63 °F (2003)
Min Temperature 18 °F 30 °F 12 °F (1949)
Degree Days  
Heating Degree Days 31 26  
Month to date heating degree days 1064 914  
Since 1 July heating degree days 10268 9800  
Cooling Degree Days 0 0  
Month to date cooling degree days 0 0  
Year to date cooling degree days 0 0  
Moisture  
Dew Point 23 °F    
Average Humidity 0    
Maximum Humidity 0    
Minimum Humidity 0    
Precipitation  
Precipitation 0.00 in 0.03 in 0.53 in (1977)
Month to date precipitation 0.20 0.93  
Year to date precipitation 6.03 3.41  
Snow  
Snow 0.00 in 0.00 in - ()
Month to date snowfall 0.8 3.8  
Since 1 July snowfall 74.5 45.7  
Snow Depth 0.00 in    
Sea Level Pressure  
Sea Level Pressure 30.23 in    
Wind  
Wind Speed 5 mph (WSW)    
Max Wind Speed 10 mph    
Max Gust Speed 14 mph    
Visibility 10 miles    
Events      
T = Trace of Precipitation, MM = Missing Value Source: NWS Daily Summary

Daily Weather History Graph

Daily Weather History Graph

Search for Another Location

Airport or City:

Trip Planner

Search our weather history database for the weather conditions in past years. The results will help you decide how hot, cold, wet, or windy it might be!

Date:

Astronomy

Apr. 29, 2013 Rise Set
Actual Time 6:34 AM AKDT 10:14 PM AKDT
Civil Twilight 5:45 AM AKDT 11:04 PM AKDT
Nautical Twilight 4:34 AM AKDT 12:16 AM AKDT
Astronomical Twilight 2:56 AM AKDT 1:51 AM AKDT
Moon 2:18 AM AKDT (4/29) 9:44 AM AKDT (4/29)
Length of Visible Light 17h 18m
Length of Day
15h 39m
Waning Gibbous, 79% of the Moon is Illuminated
Apr 29
Waning Gibbous
May 2
Last Quarter
May 9
New
May 17
First Quarter
May 24
Full

Hourly Weather History & Observations

Time (AKDT) Temp. Windchill Dew Point Humidity Pressure Visibility Wind Dir Wind Speed Gust Speed Precip Events Conditions
12:54 AM 30.0 °F 26.5 °F 21.0 °F 69% 30.28 in 10.0 mi North 3.5 mph - N/A   Partly Cloudy
1:54 AM 27.0 °F - 21.0 °F 78% 30.30 in 10.0 mi Calm Calm - N/A   Clear
2:54 AM 25.0 °F - 21.9 °F 88% 30.30 in 10.0 mi Calm Calm - N/A   Clear
3:54 AM 23.0 °F 17.0 °F 21.0 °F 92% 30.29 in 10.0 mi West 4.6 mph - N/A   Clear
4:54 AM 21.0 °F - 19.0 °F 92% 30.29 in 10.0 mi Calm Calm - N/A   Clear
5:54 AM 21.0 °F 16.2 °F 19.0 °F 92% 30.29 in 10.0 mi South 3.5 mph - N/A   Partly Cloudy
6:54 AM 19.9 °F - 19.0 °F 96% 30.28 in 10.0 mi Calm Calm - N/A   Scattered Clouds
7:54 AM 24.1 °F - 21.9 °F 91% 30.28 in 10.0 mi Calm Calm - N/A   Scattered Clouds
8:54 AM 27.0 °F - 24.1 °F 89% 30.28 in 10.0 mi Calm Calm - N/A   Scattered Clouds
9:54 AM 35.1 °F - 26.1 °F 70% 30.27 in 10.0 mi Calm Calm - N/A   Scattered Clouds
10:54 AM 37.0 °F - 24.1 °F 59% 30.25 in 10.0 mi Calm Calm - N/A   Scattered Clouds
11:54 AM 39.9 °F - 19.9 °F 45% 30.25 in 10.0 mi Calm Calm - N/A   Scattered Clouds
12:54 PM 42.1 °F 37.7 °F 21.9 °F 45% 30.24 in 10.0 mi South 6.9 mph - N/A   Partly Cloudy
1:54 PM 46.0 °F 41.0 °F 21.9 °F 39% 30.22 in 10.0 mi SW 10.4 mph - N/A   Partly Cloudy
2:54 PM 46.9 °F - 24.1 °F 41% 30.20 in 10.0 mi SW 11.5 mph - N/A   Partly Cloudy
3:54 PM 46.9 °F - 26.1 °F 44% 30.19 in 10.0 mi West 12.7 mph - N/A   Clear
4:54 PM 45.0 °F 39.3 °F 23.0 °F 42% 30.19 in 10.0 mi West 11.5 mph 18.4 mph N/A   Clear
5:54 PM 44.1 °F 38.1 °F 26.1 °F 49% 30.17 in 10.0 mi West 11.5 mph - N/A   Partly Cloudy
6:54 PM 43.0 °F 36.8 °F 25.0 °F 49% 30.16 in 10.0 mi West 11.5 mph - N/A   Partly Cloudy
7:54 PM 41.0 °F 34.7 °F 26.1 °F 55% 30.16 in 10.0 mi West 10.4 mph - N/A   Partly Cloudy
8:54 PM 37.9 °F 32.1 °F 26.1 °F 62% 30.15 in 10.0 mi West 8.1 mph - N/A   Partly Cloudy
9:54 PM 35.1 °F 30.1 °F 25.0 °F 67% 30.14 in 10.0 mi SW 5.8 mph - N/A   Scattered Clouds
10:54 PM 32.0 °F 27.5 °F 26.1 °F 79% 30.12 in 10.0 mi WSW 4.6 mph - N/A   Partly Cloudy
11:54 PM 30.0 °F 25.2 °F 26.1 °F 85% 30.12 in 10.0 mi WSW 4.6 mph - N/A   Clear